Time,TemperatureF,DewpointF,PressureIn,WindDirection,WindDirectionDegrees,WindSpeedMPH,WindSpeedGustMPH,Humidity,HourlyPrecipIn,Conditions,Clouds,dailyrainin,SoftwareType,DateUTC
2013-02-07 00:52:00,43.0,40.0,-100.00,SE,135,4.0,7.0,88,-99.99,,,-99.99,,2013-02-07 08:52:00,
2013-02-07 01:40:00,42.0,38.0,-100.00,SE,135,8.0,12.0,84,-99.99,,,-99.99,,2013-02-07 09:40:00,
2013-02-07 01:51:00,42.0,39.0,-100.00,SE,135,6.0,9.0,87,-99.99,,,-99.99,,2013-02-07 09:51:00,
2013-02-07 02:10:00,42.0,38.0,-100.00,East,90,3.0,8.0,85,-99.99,,,-99.99,,2013-02-07 10:10:00,
2013-02-07 02:51:00,42.0,38.0,-100.00,SE,135,8.0,11.0,84,-99.99,,,-99.99,,2013-02-07 10:51:00,
2013-02-07 04:52:00,41.0,38.0,-100.00,SE,135,6.0,10.0,86,-99.99,,,-99.99,,2013-02-07 12:52:00,
2013-02-07 08:32:00,40.0,37.0,-100.00,SW,225,0.0,1.0,91,-99.99,,,-99.99,,2013-02-07 16:32:00,
2013-02-07 08:52:00,40.0,38.0,-100.00,SE,135,2.0,3.0,91,-99.99,,,-99.99,,2013-02-07 16:52:00,
2013-02-07 09:52:00,43.0,37.0,-100.00,SE,135,7.0,14.0,79,-99.99,,,-99.99,,2013-02-07 17:52:00,
2013-02-07 11:10:00,45.0,37.0,-100.00,SE,135,6.0,12.0,74,-99.99,,,-99.99,,2013-02-07 19:10:00,
2013-02-07 11:11:00,43.0,36.0,-100.00,SE,135,9.0,12.0,75,-99.99,,,-99.99,,2013-02-07 19:11:00,
2013-02-07 12:52:00,46.0,36.0,-100.00,SE,135,5.0,10.0,70,-99.99,,,-99.99,,2013-02-07 20:52:00,
2013-02-07 16:40:00,44.0,35.0,-100.00,West,270,1.0,2.0,71,-99.99,,,-99.99,,2013-02-08 00:40:00,
2013-02-07 16:52:00,45.0,35.0,-100.00,West,270,3.0,4.0,67,-99.99,,,-99.99,,2013-02-08 00:52:00,
2013-02-07 17:51:00,43.0,35.0,-100.00,NW,315,0.0,2.0,74,-99.99,,,-99.99,,2013-02-08 01:51:00,
2013-02-07 18:10:00,39.0,34.0,-100.00,East,90,0.0,1.0,84,-99.99,,,-99.99,,2013-02-08 02:10:00,
2013-02-07 18:40:00,39.0,35.0,-100.00,SW,225,1.0,1.0,85,-99.99,,,-99.99,,2013-02-08 02:40:00,
2013-02-07 18:52:00,40.0,34.0,-100.00,NW,315,0.0,1.0,79,-99.99,,,-99.99,,2013-02-08 02:52:00,
2013-02-07 20:40:00,36.0,34.0,-100.00,SW,225,2.0,2.0,92,-99.99,,,-99.99,,2013-02-08 04:40:00,
2013-02-07 21:11:00,35.0,33.0,-100.00,West,270,1.0,2.0,93,-99.99,,,-99.99,,2013-02-08 05:11:00,
2013-02-07 22:30:00,33.0,32.0,-100.00,North,0,0.0,1.0,94,-99.99,,,-99.99,,2013-02-08 06:30:00,
2013-02-07 22:51:00,33.0,32.0,-100.00,SW,225,0.0,1.0,94,-99.99,,,-99.99,,2013-02-08 06:51:00,
2013-02-07 23:40:00,32.0,31.0,-100.00,North,-999,0.0,0.0,95,-99.99,,,-99.99,,2013-02-08 07:40:00,